Date,TemperatureHighF,TemperatureAvgF,TemperatureLowF,DewpointHighF,DewpointAvgF,DewpointLowF,HumidityHigh,HumidityAvg,HumidityLow,PressureMaxIn,PressureMinIn,WindSpeedMaxMPH,WindSpeedAvgMPH,GustSpeedMaxMPH,PrecipitationSumIn
2013-6-1,73,65,56,56,51,42,90,63,47,30.08,29.97,4,2,9,0.02
2013-6-2,78,65,54,57,49,42,77,56,38,30.09,30.04,4,1,9,0.00
2013-6-3,79,66,54,56,50,45,79,59,41,30.09,30.03,4,1,8,0.00
2013-6-4,79,71,55,61,53,50,83,54,42,30.06,29.99,5,1,12,0.00
2013-6-5,79,70,57,58,51,47,74,53,40,30.03,29.96,8,2,17,0.00
2013-6-6,82,68,50,57,50,21,71,54,32,30.07,29.99,8,1,8,0.00
2013-6-7,78,71,58,61,56,49,93,61,45,30.09,29.99,6,2,12,0.00
2013-6-8,75,66,60,67,56,48,99,73,40,30.00,29.91,8,1,19,0.13
2013-6-9,76,69,57,59,55,50,96,62,46,29.93,29.85,4,1,10,0.00
2013-6-10,78,70,61,62,57,51,87,65,46,30.07,29.92,4,1,11,0.00
2013-6-11,85,76,59,66,58,51,77,56,42,30.11,30.05,4,1,8,0.00
2013-6-12,84,76,63,62,57,52,69,53,43,30.17,30.11,5,1,10,0.00
2013-6-13,90,79,65,63,58,52,73,49,35,30.15,30.07,5,1,10,0.00
2013-6-14,87,74,63,67,58,53,78,60,41,30.10,30.03,6,1,11,0.00
2013-6-15,90,80,64,60,54,21,61,41,29,30.07,30.02,6,2,11,0.00
2013-6-16,94,83,73,60,54,46,54,37,23,30.05,29.92,9,3,21,0.00
2013-6-17,95,86,72,70,63,48,95,46,31,29.93,29.80,10,3,18,0.00
2013-6-18,75,70,66,69,67,63,98,89,79,29.86,29.78,8,3,15,0.00
2013-6-19,79,71,58,68,60,55,99,71,47,30.01,29.85,4,1,9,0.00
2013-6-20,80,72,57,65,61,49,87,69,52,30.10,29.99,5,1,8,0.00
2013-6-21,82,73,60,68,63,51,91,72,50,30.14,30.05,5,1,9,0.00
2013-6-22,81,74,61,69,64,55,94,73,50,30.17,30.11,5,1,8,0.00
2013-6-23,84,75,58,68,63,54,88,68,42,30.17,30.11,4,1,8,0.00
2013-6-24,77,69,61,66,62,57,96,78,65,30.22,30.16,4,1,7,0.00
2013-6-25,77,68,59,65,61,57,95,79,62,30.22,30.18,4,1,7,0.00
2013-6-26,78,68,60,64,60,57,93,79,61,30.23,30.19,4,1,8,0.00
2013-6-27,80,72,57,69,60,6,93,67,10,30.23,30.15,4,1,101,0.00
2013-6-28,61,34,32,56,56,56,84,5,84,30.23,30.19,0,0,3,0.00
2013-6-29,82,62,32,63,58,54,72,41,44,30.27,30.19,4,1,9,0.00
2013-6-30,83,74,60,67,63,54,84,68,53,30.22,30.08,4,1,8,0.00